User: anonymous   Login
Location: Unspecified
(0.0000°N, 0.0000°E)
Time: 17:47:14
(UTC+02:00)
Language:

SeaSat 1 - Orbit

View from above orbital plane
View from above orbital plane
View from above satellite
View from above satellite

Ground track
Ground track

The orbit data is extracted from the following two-line orbital elements,

1 10967U 78064A   17176.30051531 -.00000098 +00000-0 +11675-4 0  9990
2 10967 108.0117 316.3808 0002255 240.1635 119.9286 14.43649578047544
Epoch (UTC): 25 June 2017 07:12:44
Eccentricity: 0.0002255
inclination: 108.0117°
perigee height: 745 km
apogee height: 748 km
right ascension of ascending node: 316.3808°
argument of perigee: 240.1635°
revolutions per day: 14.43649578
mean anomaly at epoch: 119.9286°
orbit number at epoch: 4754

The dashed part of the orbit path shows where the satellite is in the earth's shadow,  

DLR